map of AND home
AND - Airport
Location
City:  Anderson, South Carolina, United States
Name:Anderson Regional
ICAO:KAND
IATA:AND
FAA LID:AND

Details
Type:Airport (Part 139 Class IV)
Use:Public/Civil
Latitude:3429'40"N (34.494583)
Longitude:8242'34"W (-82.709388)
Datum:WGS 1984
Elevation:781 ft (238 m)
Variation:6.43W (WMM2015 magnetic declination)
-0.07 annual change
Runways:2
Longest:6002 × 149 ft (1829 × 45.5 m), paved

Time
Time Zone:UTC-5 (DST-4)
Local Time:

Weather
METAR:KAND 241356Z AUTO 26008KT 10SM CLR 28/22 A3001 RMK AO2 SLP151 T02830222
TAF:KAND 241133Z 2412/2512 24004KT P6SM FEW050
FM241800 24010G18KT P6SM SCT060
FM250200 VRB03KT P6SM SCT150

Related Locations
Nearby:
Farthest:MQZ: 11425 mi / 18386 km
Margaret River [Margaret River Airport], WA, AU

Find:

   beyond  
but within

Other Information
Maps:
NOTAMs:
Links:
Sources:

  
  • flag of United States
  • flag of South Carolina
  

Sectional Chart

Flight Planning
at skyvector.com

Satellite Image

Google Maps Satellite view

 

Copyright © 2004-2018 Karl L. Swartz. All rights reserved.
The Great Circle Mapper name and logo are trademarks of the Great Circle Mapper.
All other trademarks mentioned herein belong to their respective owners.
Please see credits for attibutions and further copyright information.

  Follow gcmap on Facebook Follow gcmap on Twitter Follow gcmap on Google+ GCmap on LinkedIn

hCard Microformat

Geo Microformat